アサシン彗星

C/2018 N2 ( ASASSN )

English version
Home page
Updated on November 10, 2019

---------------------------------------------------------------------

・ プロフィール

発見日 2018年7月7日
発見光度 16.4等
発見者 All-Sky Automated Survey for Supernovae (ASASSN) program

・ 写真集

・ 軌道要素

Epoch 2019 Nov. 13.0 TT = JDT 2458800.5
T 2019 Nov. 10.96075 TT                                 Williams
q   3.1246419            (2000.0)            P               Q
z  -0.0000533      Peri.   24.39581     +0.78558567     -0.45744577
 +/-0.0000004      Node    25.25926     +0.27011711     -0.35227752
e   1.0001666      Incl.   77.53195     +0.55667935     +0.81648265
From 1841 observations 2018 July 11-2019 Nov. 5, mean residual 0".4.

・ 星図

・ 光度変化

        m1 = 5.5 + 5 logΔ + 8.0 log r

---------------------------------------------------------------------

軌道要素はM.P.E.C. 2019-V116に掲載されたものです。
星図はステラナビゲータ Ver.10 (アストロアーツ) で作成したものです。
光度グラフはComet for Windowsで作成したものです。

---------------------------------------------------------------------

Copyright(C) Seiichi Yoshida (comet@aerith.net). All rights reserved.